Find Flock 4be-27

NORAD ID: 60513 Int'l Des: 2024-149 Owner: PLAN Country: US Constellation: planet operational
LEOCIRCULARRETROGRADESSO

リアルタイム位置

3D地球を読み込み中...

Flock 4be-27について

説明を読み込み中...

次回通過

Passes for default location (London). Set your location on the main map for personalized predictions.

高度履歴

Loading altitude history...

軌道要素

1 60513U 24149AX 26107.19930058 .00005211 00000-0 16395-3 0 9992
2 60513 97.3831 189.0702 0005077 146.3923 213.7642 15.33384569 92791
Epoch: Apr 17, 2026 • Age: 10 hours

現在のステータス

高度 485.7 km
速度 7.62 km/s
衛星直下点 -51.76°S, 73.51°W
打ち上げ日 Aug 16, 2024
運用期間 1.6 years
タイプ earth observation

技術仕様

分類 Payload
質量 5.70 kg
乾燥質量 5.70 kg
総質量 5.70 kg
長さ 0.30 m
直径 0.10 m
スパン 0.30 m
形状 Box+2 pan
製造者 PLAN
バスタイプ Cubesat 3U
フェーズステータス In Orbit
所有者/国 PLAN/US

Most Searched